Flag for Germany Weather past 2 weeks in Forchheim, Bavaria, Germany

Now
40 °F

Light freezing rain. Partly sunny.


Feels Like: 36 °F
Forecast: 38 / 42 °F
Wind: 6 mph from West

Location: Bamberg

Current Time: Dec 20, 2014 at 4:34:56 PM

Latest Report: Dec 20, 2014 at 4:00 PM


Visibility: 4 mi

Pressure: 30.13 "Hg

Humidity: 87%

Dew point: 36 °F

Location of ForchheimLocation

Historic Weather in Forchheim — Graph

°F

Forchheim temperature yesterday

Maximum temperature yesterday: 54 °F (at 12:00 AM)
Minimum temperature yesterday: 45 °F (at 11:00 PM)
Average temperature yesterday: 51 °F

Past Weeks' High & Low Weather Summary

 TemperatureHumidityPressure
High54 °F (Dec 19, 12:00 AM)100% (Dec 7, 3:00 AM)30.50 "Hg (Dec 7, 3:00 AM)
Low24 °F (Dec 9, 1:00 AM)62% (Dec 15, 3:00 PM)29.69 "Hg (Dec 12, 7:00 PM)
Average40 °F91%30.06 "Hg
* Reported Dec 5 3:00 PM — Dec 20 3:00 PM, Forchheim, Weather by CustomWeather, © 2014

Note: Actual official high and low records may vary slightly from our data, if they occured in-between our weather recording intervals... More about our weather records

Advertising

Forchheim weather history for previous 24 hours

 ConditionsComfort  
Time TempWeatherWind HumidityBarometerVisibility
3:00 PM
Dec 20
42 °FLight rain. Overcast.6 mph76%30.13 "Hg28 mi
2:00 PM42 °FOvercast.5 mph75%30.14 "Hg37 mi
1:00 PM42 °FOvercast.5 mph70%30.16 "Hg40 mi
12:00 PM42 °FOvercast.5 mph72%30.20 "Hg40 mi
11:00 AM40 °FOvercast.6 mph80%30.22 "Hg31 mi
10:00 AM39 °FOvercast.6 mph82%30.23 "Hg31 mi
9:00 AM35 °FScattered clouds.2 mph89%30.25 "Hg34 mi
8:00 AM34 °FClear.3 mph92%30.24 "Hg25 mi
7:00 AM32 °FClear.2 mph92%30.25 "Hg15 mi
6:00 AM37 °FPassing clouds.3 mph85%30.23 "Hg31 mi
5:00 AM36 °FPassing clouds.3 mph88%30.22 "Hg31 mi
4:00 AM35 °FClear.2 mph91%30.23 "Hg37 mi
3:00 AM33 °FPassing clouds.1 mph93%30.22 "Hg22 mi
2:00 AM37 °FClear.1 mph84%30.20 "Hg28 mi
1:00 AM40 °FClear.2 mph76%30.18 "Hg40 mi
12:00 AM42 °FClear.5 mph69%30.15 "Hg43 mi
11:00 PM
Dec 19
45 °FPassing clouds.5 mph68%30.09 "Hg43 mi
10:00 PM47 °FOvercast.5 mph76%30.04 "Hg43 mi
9:00 PM48 °FOvercast.2 mph88%30.01 "Hg43 mi
8:00 PM48 °FOvercast.2 mph85%29.99 "Hg43 mi
7:00 PM49 °FLight freezing rain. Passing clouds.5 mph88%29.96 "Hg9 mi
6:00 PM50 °FLight rain. Overcast.6 mph86%29.95 "Hg40 mi
5:00 PM50 °FLight rain. Overcast.6 mph82%29.95 "Hg9 mi
4:00 PM51 °FDrizzle. Overcast.6 mph78%29.96 "Hg43 mi
Weather by CustomWeather, © 2014

See weather overviewHow to use our weather pages